CZ-6A DEB, 60841

Orbit data source: Space-Track

CZ-6A DEB, 60841 is space debris in LEO originally from a launch on Tue, 06 Aug 2024 UTC launched from the Taiyaun Space Center, China (TSC). Debris objects in space refer to the collection of defunct objects orbiting the Earth. Examples of debris include non-operational satellites, rocket bodies, and fragments generated from explosions, collisions, or faulty payload assembly.

Loading next visibility...
Identifier
60841, 2024-140HU
Orbit
LEO
Country
Flag of CNCN / PRC
Related business
Manufacturer
SAST
Mission
Spacecraft
Bus & Motor
Unknown
Mass
Unknown
Launch date (UTC)
2024-08-06 (2 years ago)
Launch vehicle
Unknown
Launch site
Taiyaun Space Center, China (TSC)
Object type
Payload
Rocket body
Debris
Shape & HBR
Unknown shape, 0.2 m
Radar Cross Section
Medium (>0.1 m² and <1 m²)

Expand to show TLE details & history
Last TLE update: 13 hours ago

TLE from 13 hours ago
0 CZ-6A DEB
1 60841U 24140HU  26171.29824976  .00001075  00000-0  47015-3 0  9997
2 60841  89.0044 274.5154 0045561 163.6452 196.6222 14.22570097 96057
Epoch: 2026-06-20T07:09Z
TLE epoch observation values (Epoch: 2026-06-20T07:09:28.779Z)
Latitude
-0.00005°
Longitude
-101.36939°
Altitude
851.16 km
Speed
7.411 km/s
True Right ascension
18h 18m 03s
True Declination
0° 00' 00"
Sunlit
Object was in full shadow at epoch
Visualization orbit readout
Latitude
Unknown
Longitude
Unknown
Altitude
Unknown
Speed
Unknown
Apparent Right ascension
Unknown
Apparent Declination
Unknown
Sunlit
N/A
Visualization observer readout
Local Sidereal Time
07:20:27
Azimuth
Unknown
Elevation
Unknown
Doppler factor
Unknown
Orbital elements
Apogee altitude
846.388 km
Perigee altitude
780.855 km
Semi-major axis
7,191.758 km
Eccentricity
0.00456
Inclination
89.0044°
RAAN
274.5154°
Arg. of periapsis
163.6452°
True anomaly
196.47366°
Mean anomaly
196.6222°
Eccentric anomaly
196.54785°
Mean motion
3.55869 °/min
Orbital period
101.16 mins
BSTAR
0.00047015
Loading maneuver chart data...
Computing Atmospheric mass density...
Loading historical data...
Loading historical data...
Loading historical data...
Loading historical data...
Loading historical data...
Loading historical data...
Loading historical data...

Documentation

Showing up to 5 results
|